This is the latest recevied weather packets stored in our database for station/object W8BS. If no packets are shown the sender has not sent any weather packets the latest 10 day(s).
| Time | Temp. | Humidity | Pressure | Rain* | Wind** | Luminosity | Snow |
|---|---|---|---|---|---|---|---|
| 1777978285 | 15.56° C | 65% | 1012.2 hPa | 0 mm | - | 26 W/m² | - |
| 1777977982 | 15.56° C | 65% | 1012.2 hPa | 0 mm | - | 21 W/m² | - |
| 1777977680 | 15.56° C | 65% | 1012.1 hPa | 0 mm | - | 16 W/m² | - |
| 1777977376 | 15.56° C | 66% | 1012.2 hPa | 0 mm | - | 10 W/m² | - |
| 1777977074 | 15.56° C | 65% | 1012.2 hPa | 0 mm | - | 6 W/m² | - |
| 1777976771 | 15.56° C | 65% | 1011.9 hPa | 0 mm | - | 5 W/m² | - |
| 1777976469 | 15.56° C | 65% | 1011.8 hPa | 0 mm | - | 3 W/m² | - |
| 1777976167 | 15.56° C | 65% | 1011.8 hPa | 0 mm | - | 1 W/m² | - |
| 1777975863 | 15.56° C | 65% | 1011.5 hPa | 0 mm | - | 0 W/m² | - |
| 1777975559 | 15.56° C | 64% | 1011.2 hPa | 0 mm | - | 0 W/m² | - |
| 1777975256 | 15.56° C | 65% | 1011.6 hPa | 0 mm | - | 0 W/m² | - |
| 1777974953 | 15.56° C | 65% | 1011.6 hPa | 0 mm | - | 0 W/m² | - |
| 1777974649 | 15.56° C | 64% | 1011.4 hPa | 0 mm | - | 0 W/m² | - |
| 1777974345 | 15.56° C | 64% | 1011.4 hPa | 0 mm | - | 0 W/m² | - |
| 1777974042 | 16.11° C | 65% | 1011.4 hPa | 0 mm | - | 0 W/m² | - |
| 1777973738 | 15.56° C | 64% | 1011.3 hPa | 0 mm | - | 0 W/m² | - |
| 1777973436 | 15.56° C | 64% | 1011.2 hPa | 0 mm | - | 0 W/m² | - |
| 1777973133 | 16.11° C | 64% | 1011.2 hPa | 0 mm | - | 0 W/m² | - |
| 1777972831 | 15.56° C | 63% | 1011.1 hPa | 0 mm | - | 0 W/m² | - |
| 1777972528 | 16.11° C | 63% | 1011.2 hPa | 0 mm | - | 0 W/m² | - |
| 1777972226 | 15.56° C | 63% | 1011.1 hPa | 0 mm | - | 0 W/m² | - |
| 1777971924 | 15.56° C | 63% | 1011.4 hPa | 0 mm | - | 0 W/m² | - |
| 1777971621 | 16.11° C | 63% | 1011.3 hPa | 0 mm | - | 0 W/m² | - |
| 1777971319 | 15.56° C | 63% | 1011.1 hPa | 0 mm | - | 0 W/m² | - |
| 1777971017 | 16.11° C | 63% | 1011 hPa | 0 mm | - | 0 W/m² | - |
* Rain latest hour (hover to see other rain measurements)
** Current wind speed in m/s (hover to see current wind gust speed)